AVA1408 LPPT-LPPR

Flight info

Callsign AVA1408
Flight time 0h 51m
Altitude 22000
Route IXIDA DCT ABLEG
Aircraft A20N/M-SDE2E3FGHIRWXY/LB1

Departure

Time 2026-05-07 17:15
Airport Lisbon Humberto Delgado Airport (LPPT)

Arrival

Time 2026-05-07 18:06
Airport Francisco de Sá Carneiro Airport (LPPR)
Time Latitude Longitude Altitude Speed Heading
2026-05-07 16:50 38.76457 -9.13357 355 ft 0 kts 77°
2026-05-07 17:04 38.76455 -9.13370 354 ft 2 kts 77°
2026-05-07 17:04 38.76451 -9.13390 348 ft 2 kts 73°
2026-05-07 17:04 38.76445 -9.13410 349 ft 2 kts 45°
2026-05-07 17:04 38.76436 -9.13413 357 ft 0 kts 343°
2026-05-07 17:08 38.76450 -9.13418 350 ft 6 kts 343°
2026-05-07 17:08 38.76518 -9.13444 350 ft 15 kts 343°
2026-05-07 17:08 38.76628 -9.13491 348 ft 15 kts 322°
2026-05-07 17:08 38.76640 -9.13568 350 ft 0 kts 259°
2026-05-07 17:09 38.76634 -9.13604 347 ft 8 kts 257°
2026-05-07 17:09 38.76616 -9.13716 351 ft 17 kts 258°
2026-05-07 17:09 38.76590 -9.13875 346 ft 12 kts 258°
2026-05-07 17:10 38.76579 -9.13945 349 ft 2 kts 258°
2026-05-07 17:10 38.76573 -9.13982 350 ft 7 kts 258°
2026-05-07 17:10 38.76560 -9.14063 347 ft 8 kts 258°
2026-05-07 17:10 38.76553 -9.14094 351 ft 7 kts 245°
2026-05-07 17:11 38.76534 -9.14165 349 ft 11 kts 264°
2026-05-07 17:11 38.76536 -9.14296 346 ft 13 kts 292°
2026-05-07 17:11 38.76540 -9.14306 348 ft 0 kts 294°
2026-05-07 17:13 38.76543 -9.14314 349 ft 5 kts 294°
2026-05-07 17:13 38.76587 -9.14396 337 ft 15 kts 329°
2026-05-07 17:14 38.76648 -9.14385 337 ft 0 kts 22°
2026-05-07 17:14 38.76649 -9.14385 337 ft 1 kts 22°
2026-05-07 17:14 38.76798 -9.14307 345 ft 58 kts 22°
2026-05-07 17:14 38.77396 -9.13990 350 ft 122 kts 22°
2026-05-07 17:15 38.78327 -9.13492 399 ft 164 kts 22°
2026-05-07 17:15 38.79403 -9.12913 957 ft 170 kts 22°
2026-05-07 17:15 38.80531 -9.12264 1531 ft 179 kts 26°
2026-05-07 17:15 38.81617 -9.11510 2234 ft 178 kts 31°
2026-05-07 17:16 38.82663 -9.10644 2834 ft 186 kts 34°
2026-05-07 17:16 38.83739 -9.09723 3509 ft 192 kts 30°
2026-05-07 17:16 38.84965 -9.08845 3980 ft 212 kts 28°
2026-05-07 17:16 38.86323 -9.07907 4469 ft 233 kts 28°
2026-05-07 17:17 38.87814 -9.06837 4983 ft 254 kts 29°
2026-05-07 17:17 38.89377 -9.05639 5617 ft 270 kts 34°
2026-05-07 17:17 38.90828 -9.04086 6577 ft 274 kts 43°
2026-05-07 17:17 38.92242 -9.02415 7535 ft 278 kts 42°
2026-05-07 17:18 38.93685 -9.00728 8484 ft 282 kts 42°
2026-05-07 17:18 38.95141 -8.99032 9397 ft 286 kts 42°
2026-05-07 17:18 38.96618 -8.97312 10279 ft 290 kts 42°
2026-05-07 17:18 38.98179 -8.95492 10745 ft 312 kts 42°
2026-05-07 17:19 38.99841 -8.93554 11076 ft 335 kts 42°
2026-05-07 17:19 39.01591 -8.91511 11742 ft 343 kts 42°
2026-05-07 17:19 39.03383 -8.89417 12580 ft 347 kts 42°
2026-05-07 17:19 39.05158 -8.87341 13362 ft 351 kts 42°
2026-05-07 17:20 39.06993 -8.85193 14148 ft 355 kts 42°
2026-05-07 17:20 39.08834 -8.83037 14928 ft 358 kts 42°
2026-05-07 17:20 39.10689 -8.80863 15380 ft 364 kts 42°
2026-05-07 17:20 39.12570 -8.78656 15448 ft 365 kts 42°
2026-05-07 17:21 39.14426 -8.76476 15296 ft 364 kts 42°
2026-05-07 17:21 39.16317 -8.74249 15376 ft 366 kts 43°
2026-05-07 17:21 39.18050 -8.71848 15898 ft 366 kts 49°
2026-05-07 17:21 39.19730 -8.69370 16475 ft 369 kts 48°
2026-05-07 17:22 39.21425 -8.66893 17172 ft 372 kts 48°
2026-05-07 17:22 39.22577 -8.65210 17629 ft 374 kts 48°
2026-05-07 17:22 39.24299 -8.62693 18275 ft 378 kts 48°
2026-05-07 17:22 39.26048 -8.60132 18921 ft 382 kts 48°
2026-05-07 17:23 39.28402 -8.56678 19744 ft 387 kts 49°
2026-05-07 17:23 39.29595 -8.54926 20162 ft 389 kts 49°
2026-05-07 17:23 39.31398 -8.52274 20763 ft 393 kts 49°
2026-05-07 17:23 39.33205 -8.49614 21355 ft 396 kts 49°
2026-05-07 17:24 39.35032 -8.46924 21810 ft 401 kts 49°
2026-05-07 17:24 39.36888 -8.44187 21965 ft 402 kts 49°
2026-05-07 17:24 39.38733 -8.41465 21998 ft 402 kts 49°
2026-05-07 17:24 39.40561 -8.38765 21999 ft 402 kts 49°
2026-05-07 17:25 39.42416 -8.36022 21999 ft 402 kts 49°
2026-05-07 17:25 39.44230 -8.33339 21999 ft 402 kts 49°
2026-05-07 17:25 39.46081 -8.30598 22004 ft 402 kts 49°
2026-05-07 17:25 39.47918 -8.27876 21999 ft 401 kts 49°
2026-05-07 17:26 39.49749 -8.25160 21999 ft 402 kts 49°
2026-05-07 17:26 39.51590 -8.22426 21999 ft 402 kts 49°
2026-05-07 17:26 39.53431 -8.19692 22004 ft 402 kts 49°
2026-05-07 17:26 39.55294 -8.16980 21996 ft 402 kts 44°
2026-05-07 17:27 39.57532 -8.14814 22000 ft 402 kts 27°
2026-05-07 17:27 39.60137 -8.13547 21998 ft 402 kts 11°
2026-05-07 17:27 39.62915 -8.13271 21999 ft 401 kts 355°
2026-05-07 17:27 39.65663 -8.13874 22001 ft 401 kts 347°
2026-05-07 17:28 39.68382 -8.14649 21999 ft 402 kts 347°
2026-05-07 17:28 39.71096 -8.15430 22003 ft 401 kts 347°
2026-05-07 17:28 39.73856 -8.16206 22001 ft 400 kts 347°
2026-05-07 17:28 39.76568 -8.16952 21999 ft 400 kts 348°
2026-05-07 17:29 39.79322 -8.17700 21999 ft 400 kts 348°
2026-05-07 17:29 39.82040 -8.18434 22000 ft 401 kts 348°
2026-05-07 17:29 39.84773 -8.19172 22000 ft 401 kts 348°
2026-05-07 17:29 39.87506 -8.19910 21999 ft 400 kts 348°
2026-05-07 17:30 39.90210 -8.20641 22002 ft 401 kts 348°
2026-05-07 17:30 39.92943 -8.21380 22002 ft 401 kts 348°
2026-05-07 17:30 39.95709 -8.22129 21999 ft 402 kts 348°
2026-05-07 17:30 39.98431 -8.22867 22001 ft 402 kts 348°
2026-05-07 17:31 40.01159 -8.23607 22004 ft 403 kts 348°
2026-05-07 17:31 40.03945 -8.24363 21998 ft 403 kts 348°
2026-05-07 17:31 40.06675 -8.25105 21999 ft 403 kts 348°
2026-05-07 17:31 40.09443 -8.25857 21999 ft 402 kts 348°
2026-05-07 17:32 40.12175 -8.26599 21999 ft 399 kts 348°
2026-05-07 17:32 40.14895 -8.27340 22003 ft 399 kts 348°
2026-05-07 17:32 40.17600 -8.28077 21999 ft 400 kts 348°
2026-05-07 17:32 40.20347 -8.28826 21999 ft 400 kts 348°
2026-05-07 17:33 40.23051 -8.29564 21999 ft 401 kts 348°
2026-05-07 17:33 40.25797 -8.30314 22001 ft 400 kts 348°
2026-05-07 17:33 40.28509 -8.31055 22004 ft 401 kts 348°
2026-05-07 17:33 40.31240 -8.31803 22000 ft 401 kts 348°
2026-05-07 17:34 40.34000 -8.32559 21999 ft 401 kts 348°
2026-05-07 17:34 40.36722 -8.33305 21999 ft 400 kts 348°
2026-05-07 17:34 40.39451 -8.34053 21999 ft 401 kts 348°
2026-05-07 17:34 40.42165 -8.34799 21842 ft 401 kts 348°
2026-05-07 17:35 40.44898 -8.35550 21615 ft 399 kts 348°
2026-05-07 17:35 40.47598 -8.36292 21353 ft 397 kts 348°
2026-05-07 17:35 40.50323 -8.37042 21100 ft 394 kts 348°
2026-05-07 17:35 40.53013 -8.37783 20849 ft 392 kts 348°
2026-05-07 17:36 40.55747 -8.38537 20594 ft 391 kts 348°
2026-05-07 17:36 40.58398 -8.39269 20343 ft 390 kts 348°
2026-05-07 17:36 40.61034 -8.39997 20090 ft 389 kts 348°
2026-05-07 17:36 40.63709 -8.40736 19841 ft 387 kts 348°
2026-05-07 17:37 40.66330 -8.41461 19591 ft 385 kts 348°
2026-05-07 17:37 40.68944 -8.42187 19337 ft 384 kts 347°
2026-05-07 17:37 40.71490 -8.43311 19086 ft 382 kts 334°
2026-05-07 17:37 40.73758 -8.45110 18689 ft 380 kts 322°
2026-05-07 17:38 40.75712 -8.47447 18012 ft 382 kts 315°
2026-05-07 17:38 40.77623 -8.49910 17048 ft 389 kts 315°
2026-05-07 17:38 40.79574 -8.52420 15786 ft 402 kts 315°
2026-05-07 17:38 40.81641 -8.55074 14269 ft 418 kts 315°
2026-05-07 17:39 40.83731 -8.57755 13347 ft 418 kts 315°
2026-05-07 17:39 40.85836 -8.60456 12532 ft 414 kts 315°
2026-05-07 17:39 40.87853 -8.63046 11649 ft 405 kts 315°
2026-05-07 17:39 40.89879 -8.65649 10477 ft 398 kts 315°
2026-05-07 17:40 40.91852 -8.68187 9451 ft 391 kts 315°
2026-05-07 17:40 40.93738 -8.70616 9080 ft 367 kts 315°
2026-05-07 17:40 40.95612 -8.72794 8819 ft 343 kts 325°
2026-05-07 17:40 40.97630 -8.74228 8601 ft 322 kts 339°
2026-05-07 17:41 40.99724 -8.74987 8408 ft 302 kts 349°
2026-05-07 17:41 41.01726 -8.75498 8147 ft 287 kts 348°
2026-05-07 17:41 41.03569 -8.76387 7734 ft 277 kts 325°
2026-05-07 17:41 41.04892 -8.78219 7340 ft 277 kts 298°
2026-05-07 17:42 41.05436 -8.80624 6978 ft 273 kts 272°
2026-05-07 17:42 41.05116 -8.83062 6448 ft 271 kts 245°
2026-05-07 17:42 41.03970 -8.85007 6121 ft 270 kts 217°
2026-05-07 17:42 41.02260 -8.85993 6016 ft 272 kts 188°
2026-05-07 17:43 41.00383 -8.85802 5999 ft 273 kts 161°
2026-05-07 17:43 40.98700 -8.84633 6001 ft 274 kts 149°
2026-05-07 17:43 40.97065 -8.83318 5935 ft 272 kts 149°
2026-05-07 17:43 40.95457 -8.82023 5663 ft 271 kts 149°
2026-05-07 17:44 40.93858 -8.80736 5310 ft 270 kts 149°
2026-05-07 17:44 40.92255 -8.79444 4945 ft 269 kts 149°
2026-05-07 17:44 40.90727 -8.78030 4567 ft 268 kts 134°
2026-05-07 17:44 40.89769 -8.75922 4225 ft 265 kts 105°
2026-05-07 17:45 40.89623 -8.73531 4116 ft 269 kts 89°
2026-05-07 17:45 40.89654 -8.71043 4090 ft 267 kts 89°
2026-05-07 17:45 40.89685 -8.68598 4090 ft 267 kts 89°
2026-05-07 17:45 40.89716 -8.66151 4090 ft 268 kts 89°
2026-05-07 17:46 40.89748 -8.63686 4091 ft 268 kts 89°
2026-05-07 17:46 40.89852 -8.61228 4086 ft 267 kts 77°
2026-05-07 17:46 40.90641 -8.59056 4092 ft 267 kts 49°
2026-05-07 17:46 40.92134 -8.57603 4092 ft 266 kts 20°
2026-05-07 17:47 40.93928 -8.57265 4092 ft 265 kts 353°
2026-05-07 17:47 40.95768 -8.57674 4090 ft 265 kts 349°
2026-05-07 17:47 40.97573 -8.58116 4091 ft 265 kts 349°
2026-05-07 17:47 40.99403 -8.58564 4091 ft 265 kts 349°
2026-05-07 17:48 41.01208 -8.59006 4090 ft 265 kts 349°
2026-05-07 17:48 41.03040 -8.59456 4092 ft 265 kts 349°
2026-05-07 17:48 41.04585 -8.59836 4060 ft 264 kts 349°
2026-05-07 17:48 41.06401 -8.60283 3807 ft 263 kts 349°
2026-05-07 17:49 41.08185 -8.60726 3483 ft 262 kts 348°
2026-05-07 17:49 41.09926 -8.61465 3185 ft 258 kts 340°
2026-05-07 17:49 41.11575 -8.62244 3095 ft 247 kts 340°
2026-05-07 17:49 41.13150 -8.62979 3084 ft 233 kts 340°
2026-05-07 17:50 41.14149 -8.63442 3061 ft 223 kts 340°
2026-05-07 17:50 41.16117 -8.64351 2610 ft 223 kts 340°
2026-05-07 17:50 41.17107 -8.64817 2144 ft 233 kts 339°
2026-05-07 17:50 41.18627 -8.65553 1827 ft 217 kts 340°
2026-05-07 17:51 41.19940 -8.66162 2127 ft 195 kts 340°
2026-05-07 17:51 41.21273 -8.66751 2778 ft 211 kts 341°
2026-05-07 17:51 41.22704 -8.67378 3247 ft 224 kts 340°
2026-05-07 17:51 41.24206 -8.68087 3098 ft 225 kts 339°
2026-05-07 17:52 41.25637 -8.68795 3091 ft 222 kts 339°
2026-05-07 17:52 41.27083 -8.69540 3088 ft 223 kts 338°
2026-05-07 17:52 41.28375 -8.70636 3089 ft 221 kts 309°
2026-05-07 17:52 41.29015 -8.72479 3090 ft 222 kts 276°
2026-05-07 17:53 41.28806 -8.74472 3092 ft 221 kts 250°
2026-05-07 17:53 41.28262 -8.76380 3088 ft 221 kts 249°
2026-05-07 17:53 41.27702 -8.78303 3089 ft 221 kts 249°
2026-05-07 17:53 41.27148 -8.80203 3090 ft 221 kts 249°
2026-05-07 17:54 41.26594 -8.82100 3092 ft 221 kts 249°
2026-05-07 17:54 41.26040 -8.83996 3086 ft 221 kts 249°
2026-05-07 17:54 41.25486 -8.85887 3088 ft 221 kts 249°
2026-05-07 17:54 41.24939 -8.87755 3090 ft 221 kts 249°
2026-05-07 17:55 41.24375 -8.89678 3091 ft 221 kts 249°
2026-05-07 17:55 41.23821 -8.91569 3086 ft 221 kts 249°
2026-05-07 17:55 41.23266 -8.93461 3086 ft 221 kts 249°
2026-05-07 17:55 41.22701 -8.95384 3090 ft 221 kts 249°
2026-05-07 17:56 41.22041 -8.97214 3090 ft 220 kts 231°
2026-05-07 17:56 41.20808 -8.98381 3097 ft 226 kts 197°
2026-05-07 17:56 41.19143 -8.98499 3094 ft 251 kts 167°
2026-05-07 17:56 41.17601 -8.97473 3093 ft 252 kts 137°
2026-05-07 17:57 41.16448 -8.95703 3090 ft 253 kts 129°
2026-05-07 17:57 41.15711 -8.94484 3088 ft 253 kts 129°
2026-05-07 17:57 41.14250 -8.92064 3088 ft 253 kts 129°
2026-05-07 17:57 41.13150 -8.90240 3089 ft 253 kts 129°
2026-05-07 17:58 41.12054 -8.88425 3090 ft 253 kts 129°
2026-05-07 17:58 41.10955 -8.86604 3089 ft 253 kts 129°
2026-05-07 17:58 41.09863 -8.84795 3084 ft 241 kts 129°
2026-05-07 17:58 41.08851 -8.83118 3090 ft 227 kts 129°
2026-05-07 17:59 41.07884 -8.81515 3088 ft 225 kts 129°
2026-05-07 17:59 41.06911 -8.79901 3090 ft 224 kts 129°
2026-05-07 17:59 41.05943 -8.78295 3092 ft 222 kts 129°
2026-05-07 17:59 41.05017 -8.76756 3083 ft 198 kts 127°
2026-05-07 18:00 41.04498 -8.75205 3105 ft 174 kts 97°
2026-05-07 18:00 41.04636 -8.73782 3081 ft 144 kts 67°
2026-05-07 18:00 41.05157 -8.72655 3091 ft 143 kts 55°
2026-05-07 18:00 41.05706 -8.71560 3092 ft 141 kts 56°
2026-05-07 18:01 41.06237 -8.70473 3087 ft 141 kts 56°
2026-05-07 18:01 41.06768 -8.69388 3088 ft 141 kts 56°
2026-05-07 18:01 41.07303 -8.68304 3087 ft 141 kts 56°
2026-05-07 18:01 41.07841 -8.67216 3089 ft 141 kts 56°
2026-05-07 18:02 41.08924 -8.65043 3089 ft 142 kts 54°
2026-05-07 18:02 41.09701 -8.64320 3121 ft 138 kts 12°
2026-05-07 18:02 41.10652 -8.64400 3098 ft 137 kts 346°
2026-05-07 18:03 41.11583 -8.64667 2911 ft 140 kts 347°
2026-05-07 18:03 41.12561 -8.64933 2488 ft 146 kts 347°
2026-05-07 18:03 41.13555 -8.65195 2182 ft 142 kts 348°
2026-05-07 18:03 41.14497 -8.65439 1929 ft 136 kts 348°
2026-05-07 18:04 41.15423 -8.65678 1654 ft 133 kts 348°
2026-05-07 18:04 41.16347 -8.65919 1475 ft 135 kts 348°
2026-05-07 18:04 41.17272 -8.66159 1383 ft 135 kts 348°
2026-05-07 18:04 41.18185 -8.66396 1294 ft 135 kts 348°
2026-05-07 18:05 41.19108 -8.66638 1197 ft 136 kts 348°
2026-05-07 18:05 41.20031 -8.66879 1022 ft 135 kts 348°
2026-05-07 18:05 41.20950 -8.67119 840 ft 133 kts 348°
2026-05-07 18:05 41.21867 -8.67358 650 ft 135 kts 348°
2026-05-07 18:06 41.22779 -8.67598 402 ft 133 kts 348°
2026-05-07 18:06 41.23657 -8.67832 227 ft 129 kts 348°
2026-05-07 18:06 41.24310 -8.68008 211 ft 55 kts 349°
2026-05-07 18:06 41.24504 -8.68057 213 ft 15 kts 349°
2026-05-07 18:07 41.24650 -8.68093 214 ft 30 kts 350°
2026-05-07 18:07 41.24909 -8.68150 198 ft 43 kts 350°
2026-05-07 18:07 41.25207 -8.68136 181 ft 41 kts 22°
2026-05-07 18:07 41.25269 -8.68103 178 ft 5 kts 24°
2026-05-07 18:08 41.25284 -8.68087 178 ft 0 kts 49°
2026-05-07 18:09 41.25287 -8.68080 177 ft 5 kts 57°
2026-05-07 18:09 41.25287 -8.68042 177 ft 2 kts 117°
2026-05-07 18:10 41.25244 -8.68013 178 ft 12 kts 162°
2026-05-07 18:10 41.25145 -8.67985 182 ft 16 kts 169°
2026-05-07 18:10 41.25045 -8.67959 196 ft 14 kts 169°
2026-05-07 18:10 41.24951 -8.67935 192 ft 14 kts 169°
2026-05-07 18:11 41.24859 -8.67896 195 ft 14 kts 149°
2026-05-07 18:11 41.24808 -8.67848 200 ft 13 kts 143°
2026-05-07 18:11 41.24703 -8.67796 202 ft 12 kts 170°
2026-05-07 18:11 41.24617 -8.67781 205 ft 13 kts 175°
2026-05-07 18:12 41.24528 -8.67766 208 ft 13 kts 169°
2026-05-07 18:12 41.24441 -8.67743 211 ft 13 kts 168°
2026-05-07 18:12 41.24344 -8.67717 211 ft 15 kts 168°
2026-05-07 18:12 41.24264 -8.67633 214 ft 15 kts 124°
2026-05-07 18:13 41.24205 -8.67533 220 ft 13 kts 132°
2026-05-07 18:13 41.24135 -8.67465 225 ft 13 kts 154°
2026-05-07 18:13 41.24049 -8.67428 226 ft 13 kts 166°
2026-05-07 18:13 41.23965 -8.67443 228 ft 13 kts 210°
2026-05-07 18:14 41.23879 -8.67488 228 ft 13 kts 173°
2026-05-07 18:14 41.23864 -8.67477 228 ft 1 kts 130°
2026-05-07 18:14 41.23861 -8.67468 231 ft 1 kts 110°
2026-05-07 18:14 41.23861 -8.67463 231 ft 0 kts 102°
2026-05-07 18:15 41.23861 -8.67441 230 ft 5 kts 87°
2026-05-07 18:15 41.23866 -8.67401 231 ft 0 kts 77°
2026-05-07 18:15 41.23868 -8.67392 231 ft 2 kts 72°
2026-05-07 18:15 41.23870 -8.67387 231 ft 1 kts 63°
2026-05-07 18:16 41.23870 -8.67382 231 ft 1 kts 81°
2026-05-07 18:16 41.23871 -8.67380 231 ft 0 kts 79°